Location: Newark
(35.0317°N, 117.3481°W)
Time: 00:02:49
(UTC+00:00)

Envisat - Visible Passes

Search period start: 25 March 2019 00:00
Search period end: 04 April 2019 00:00
Orbit: 764 x 766 km, 98.2° (Epoch: 24 March)

Date Brightness Start Highest point End Pass type
(mag) Time Alt. Az. Time Alt. Az. Time Alt. Az.
25 Mar 5.2 03:24:02 10° SSW 03:28:12 26° W 03:32:24 10° NW visible
26 Mar 3.6 02:46:20 10° S 02:51:19 62° WSW 02:56:22 10° NNW visible
27 Mar 5.9 03:51:24 10° WSW 03:53:56 14° W 03:56:30 10° WNW visible
28 Mar 4.8 03:12:24 10° SSW 03:16:56 33° W 03:21:30 10° NNW visible
29 Mar 3.2 02:35:03 10° S 02:40:06 80° WSW 02:45:12 10° NNW visible
30 Mar 5.8 03:39:14 10° SW 03:42:38 18° W 03:46:03 10° NW visible
31 Mar 4.3 03:00:53 10° S 03:05:40 42° W 03:10:30 10° NNW visible
02 Apr 5.4 03:27:21 10° SSW 03:31:20 23° W 03:35:21 10° NW visible
03 Apr 3.8 02:49:28 10° S 02:54:26 55° W 02:59:25 10° NNW visible
